SCP
0 0 0 0 0 0 0 -0 -0 -0 0 0 0 0 0 0 1 1 0 1 1 0 0 0 0 0 -0 -0 -0 0 0 0 0 0 0 0 0 0 -0 -0 -0 -0 -0 -0 -0 0 0 0 -0
0 0 0 0 0 0 0 0 0 0 0 0 0 0 0 0 1 1 1 0 0 0 0 0 0 0 -0 -0 -0 0 0 0 0 1 0 0 0 0 0 -0 -0 -0 -0 -0 -0 0 0 -0 -0
0 0 0 0 0 0 0 -0 0 0 0 0 0 0 0 0 1 0 0 0 0 0 0 0 0 1 0 0 0 1 1 1 1 1 1 1 0 0 0 0 0 0 -0 -0 -0 -0 -0 -0 -0
0 0 0 0 -0 0 -0 -0 -0 0 0 0 0 0 0 0 0 0 0 1 0 0 0 0 0 1 1 1 1 1 1 1 1 1 1 1 0 0 0 0 0 0 -0 -0 -0 -0 -0 -0 -0
0 0 0 0 0 0 0 -0 -0 0 0 0 0 0 0 2 1 0 1 1 0 0 0 0 0 1 1 1 1 1 1 1 1 1 1 0 0 0 0 0 0 0 0 -0 -0 -0 -0 -0 -0
0 0 0 0 -0 0 0 0 -0 0 0 0 0 0 0 1 0 0 1 0 0 0 0 0 0 0 1 1 1 1 0 0 0 0 0 0 0 0 0 0 0 0 0 -0 -0 -0 0 0 0
0 0 0 0 -0 -0 -0 0 0 0 0 0 0 0 0 1 0 1 1 1 1 0 0 0 0 0 0 0 0 0 0 0 0 0 0 0 0 0 0 0 0 0 -0 -0 0 0 0 0 0
0 0 0 0 -0 0 -0 0 0 0 0 0 0 0 0 1 0 1 1 1 1 0 0 0 0 1 0 0 0 0 0 0 0 0 0 0 0 0 0 0 0 0 0 0 0 0 0 0 0
0 0 0 -0 -0 0 -0 0 0 0 0 0 0 0 0 0 -0 0 1 1 1 1 0 0 0 0 0 0 0 0 -0 0 0 0 0 0 0 0 0 0 0 0 0 0 0 0 0 0 0
0 0 -0 0 0 -0 -0 0 0 -0 0 0 0 0 0 0 0 0 0 1 1 1 0 0 0 0 0 0 0 0 0 0 0 0 0 0 0 0 0 0 0 0 0 0 0 0 0 0 0
0 0 0 0 0 0 0 0 0 0 0 0 0 0 0 1 1 1 0 0 0 1 1 0 0 1 0 0 0 0 0 0 0 0 0 0 0 0 0 0 0 0 0 0 0 0 0 0 0
0 -0 -0 0 0 0 0 0 0 0 -0 0 0 0 1 1 0 0 0 1 1 1 1 1 1 0 0 0 0 0 0 0 0 0 0 0 0 0 0 0 0 0 0 0 0 0 0 0 0
0 -0 -0 -0 -0 -0 0 -0 -0 -0 -0 0 0 0 0 0 0 -0 0 0 0 1 1 1 1 0 0 0 0 0 0 0 0 0 0 0 0 0 0 0 0 0 0 0 0 0 0 0 0
0 0 -0 -0 0 -0 -0 -0 -0 -0 -0 0 0 -0 -0 0 0 0 0 0 0 0 0 0 0 0 0 0 0 0 0 0 0 0 0 0 0 0 0 0 0 0 0 0 0 0 0 0 0
0 0 0 -0 -0 -0 -0 -0 0 -0 -0 -0 0 0 -0 -0 0 0 0 -0 -0 0 0 -0 0 0 0 0 0 0 0 0 0 0 0 0 0 0 0 0 0 0 0 0 0 0 0 0 0
0 0 0 0 0 0 0 0 -0 0 0 0 0 0 0 0 -0 0 0 0 -0 0 -0 -0 0 0 0 0 0 0 0 0 0 0 0 0 0 0 0 0 0 0 0 0 0 0 0 0 0
0 0 0 0 0 0 0 0 -0 0 0 0 0 0 0 0 0 0 0 0 0 -0 -0 0 0 0 0 0 0 0 0 0 0 0 0 0 0 0 0 0 0 0 0 0 0 0 0 0 0
0 0 0 0 0 0 0 0 0 0 0 0 0 0 0 0 0 0 0 0 0 0 -0 -1 0 0 0 0 0 0 0 0 0 0 0 0 0 0 0 0 0 0 0 0 0 0 0 0 0
0 0 0 0 0 0 0 0 0 0 0 0 0 0 0 0 0 0 0 0 0 2 1 -1 -0 0 0 0 0 0 0 0 0 0 0 0 0 0 0 0 0 0 0 0 0 0 0 0 0
0 0 0 0 0 0 0 -0 -0 0 -0 0 0 0 0 0 0 0 0 0 0 1 2 2 0 0 0 0 0 0 0 0 0 0 0 0 0 0 0 0 0 0 0 0 0 0 0 0 0
0 0 0 0 0 0 0 0 0 0 0 -0 -0 0 0 0 0 0 0 0 0 0 2 2 1 0 0 0 0 0 0 0 0 0 0 0 0 0 0 0 0 0 0 0 0 0 0 0 0
0 0 0 0 0 0 0 0 0 0 0 0 0 -0 0 0 0 0 0 0 0 3 3 2 1 1 1 0 0 0 0 0 0 0 0 0 0 0 0 0 0 0 0 0 0 0 0 0 0
0 0 0 0 0 0 0 0 0 0 0 0 0 0 0 0 0 0 0 0 0 3 2 1 1 0 0 0 0 0 0 0 0 0 0 0 0 0 0 0 0 0 0 0 0 0 0 0 0
0 0 0 0 0 0 0 0 0 0 0 0 0 0 0 0 0 0 0 0 0 2 3 2 0 0 0 0 0 0 0 0 0 0 0 0 0 0 0 0 0 0 0 0 0 0 0 0 0
0 0 0 0 0 0 0 0 0 0 0 0 0 0 0 0 0 0 0 0 0 2 2 1 0 0 0 0 0 0 0 0 0 0 0 0 0 0 0 0 0 0 0 0 0 0 0 0 0
0 0 0 0 0 0 0 0 0 0 0 0 0 0 0 0 0 0 0 0 0 3 2 0 0 0 0 0 0 0 0 0 0 0 0 0 0 0 0 0 0 0 0 0 0 0 0 0 0
0 0 0 0 0 0 0 0 0 0 0 0 0 0 0 0 0 0 0 0 0 3 2 0 0 0 0 0 0 0 0 0 0 0 0 0 0 0 0 0 0 0 0 0 0 0 0 0 0
0 0 0 0 0 0 0 0 0 0 0 0 0 0 0 0 0 0 0 0 0 0 1 0 0 0 0 0 0 0 0 0 0 0 0 0 0 0 0 0 0 0 0 0 0 0 0 0 0
0 0 0 0 0 0 0 0 0 0 0 0 0 0 0 0 0 0 0 0 0 0 2 0 0 0 0 0 0 0 0 0 0 0 0 0 0 0 0 0 0 0 0 0 0 0 0 0 0
0 0 0 0 0 0 0 0 0 0 0 0 0 0 0 0 0 0 0 0 0 0 0 0 0 0 0 0 0 0 0 0 0 0 0 0 0 0 0 0 0 0 0 0 0 0 0 0 0
Wind_Speed_500mb
15 16 15 6 4 5 17 25 28 35 18 4 15 16 9 4 7 3 39 26 26 24 28 47 57 62 62 62 60 62 64 59 54 48 43 38 33 28 26 25 23 22 20 18 19 18 16 15 15
14 16 11 8 5 6 20 31 33 30 20 12 15 19 16 9 20 25 40 26 25 24 33 48 58 62 63 62 61 64 64 58 54 48 42 36 31 26 24 25 26 23 21 21 19 17 15 16 18
20 21 5 6 9 25 16 18 25 10 22 13 5 9 5 13 20 31 20 24 23 23 35 49 58 63 63 62 62 65 64 59 53 47 42 36 31 27 24 27 25 22 22 21 19 16 15 17 22
18 12 15 4 26 35 35 46 45 19 18 16 6 4 5 2 28 19 26 26 24 25 38 49 58 61 62 61 62 63 62 58 53 48 44 39 35 27 28 27 24 24 24 21 19 17 18 23 27
20 10 7 10 20 35 38 60 50 13 12 20 23 6 4 14 21 26 22 28 28 29 39 49 56 60 62 62 60 61 61 59 55 51 47 42 37 31 30 26 26 26 25 22 20 20 23 26 30
8 9 5 11 24 40 39 62 50 17 13 7 16 12 7 27 28 26 20 28 27 27 39 48 54 58 60 61 60 60 60 59 56 54 50 44 36 34 32 29 28 28 26 23 22 23 26 27 30
11 4 19 19 32 46 46 66 28 7 3 3 6 6 26 37 29 30 27 30 30 28 40 49 57 58 59 60 62 62 62 61 59 57 53 44 39 37 34 33 32 30 27 24 23 26 27 27 31
45 5 32 25 27 46 51 57 58 15 5 11 10 6 11 49 34 33 35 36 28 36 44 51 60 60 62 64 62 63 64 64 61 56 51 45 43 40 39 36 34 31 28 26 27 29 29 29 35
35 12 32 37 35 44 65 38 67 16 10 9 6 5 17 51 48 40 44 43 37 42 46 51 64 66 64 63 67 68 66 63 64 58 51 48 46 45 42 39 37 33 30 28 30 31 31 33 42
30 22 40 33 34 43 60 53 59 31 26 17 22 25 28 46 52 49 55 56 58 55 54 59 70 72 71 67 67 63 62 65 64 62 58 50 47 46 47 45 41 37 34 33 35 36 36 40 47
36 41 35 39 61 66 58 58 66 37 31 24 45 53 55 64 59 56 57 55 61 64 60 67 73 76 78 76 75 72 69 67 67 64 61 54 52 57 54 52 49 44 42 40 42 43 43 44 48
36 58 55 58 68 67 43 65 56 56 52 61 62 46 59 67 65 63 59 60 67 71 69 68 73 81 81 79 80 80 74 70 68 66 62 59 63 61 58 53 49 47 45 44 45 47 45 43 44
42 41 58 65 62 54 56 43 35 58 70 71 69 66 51 61 70 66 59 58 63 74 78 80 81 81 85 83 84 81 75 71 71 69 65 65 69 65 59 55 52 50 49 49 52 50 45 41 47
47 43 51 60 71 64 48 49 45 70 82 67 73 77 68 51 66 71 68 67 68 70 82 88 87 89 91 88 89 84 77 76 77 77 72 74 72 67 63 61 56 57 54 54 51 48 44 46 47
27 33 40 45 48 47 57 56 60 76 81 70 70 77 80 77 58 79 78 81 75 75 73 91 93 93 96 95 96 89 83 80 80 79 75 82 78 71 65 62 57 61 60 56 51 45 47 52 52
35 28 32 16 32 47 37 59 46 65 75 75 76 73 72 77 82 78 87 93 89 86 87 79 90 96 100 100 103 95 88 84 82 77 77 90 83 78 68 65 64 64 61 58 57 54 55 51 50
21 38 47 39 39 40 36 61 53 66 72 72 80 84 84 87 92 94 92 93 106 98 97 91 90 95 102 107 102 96 87 90 86 83 81 96 88 83 75 71 68 66 66 65 62 61 57 55 50
35 46 45 38 17 33 52 58 59 83 62 71 76 77 76 81 99 100 102 99 103 114 108 103 99 100 100 109 101 97 89 90 89 88 87 94 94 88 80 75 73 74 72 71 68 64 60 54 54
34 36 49 32 36 48 40 48 40 30 44 45 65 67 72 80 57 81 103 102 99 114 123 122 115 110 107 108 108 102 100 96 95 94 92 86 92 96 91 86 84 83 82 80 75 69 65 59 61
46 52 59 50 44 44 50 59 52 38 42 33 59 65 68 84 72 73 61 98 107 106 120 127 123 119 112 112 106 107 101 102 100 99 98 91 88 96 95 93 94 92 88 83 83 81 77 72 74
50 60 48 55 38 45 51 59 57 40 36 52 60 51 65 77 76 84 85 75 83 100 115 125 127 125 116 109 105 99 95 93 89 99 103 102 92 93 99 95 96 96 91 90 90 91 89 89 82
51 49 52 55 41 36 6 27 60 33 51 41 37 59 65 61 67 79 77 88 84 91 103 113 130 130 122 114 111 109 113 108 109 114 110 106 96 93 103 102 100 99 94 93 95 95 95 91 93
63 23 40 47 45 25 39 20 59 18 44 43 30 52 61 74 81 83 97 99 103 98 101 114 127 131 125 120 115 108 117 113 106 95 94 107 100 93 96 105 105 103 99 98 99 101 102 97 93
41 46 41 43 34 27 59 35 33 47 58 46 32 44 54 40 56 57 74 98 104 111 114 117 126 131 126 120 117 110 111 114 113 101 96 104 105 101 98 104 111 104 101 102 102 103 104 101 98
42 32 19 23 30 39 50 33 32 58 66 42 22 43 73 80 65 64 67 73 88 106 122 119 125 129 125 117 116 107 104 111 117 118 113 111 111 110 106 102 114 110 102 103 102 104 105 105 100
41 52 30 26 26 34 37 32 43 35 30 44 50 51 70 66 56 41 46 53 68 103 110 117 121 119 115 109 105 96 92 99 108 112 109 115 115 112 107 102 108 109 100 103 102 104 104 105 99
37 45 56 53 53 33 28 36 24 24 30 34 34 54 68 90 59 51 39 23 28 69 98 104 107 107 107 98 91 89 86 95 105 98 106 108 109 109 105 101 102 106 103 102 98 100 105 104 102
18 18 15 25 38 48 16 25 10 23 24 28 33 35 60 89 42 37 38 39 47 43 69 84 86 93 94 85 84 84 82 89 98 87 97 101 102 102 99 94 94 100 102 100 95 97 95 97 91
18 13 7 8 8 8 13 5 10 15 8 18 17 28 46 77 87 14 9 15 31 58 66 76 81 86 81 79 77 72 80 80 101 99 94 94 94 93 89 85 85 95 97 99 97 93 87 89 86
18 7 7 7 7 7 4 8 19 4 6 7 13 34 34 62 88 50 15 10 10 35 72 68 79 77 74 66 61 70 77 74 86 92 89 85 86 85 82 80 83 89 89 95 89 86 80 86 86
Wind_Direction_500mb
250 227 227 260 21 108 250 248 238 267 285 126 102 73 145 118 68 262 159 193 204 207 173 175 180 179 176 175 173 172 174 174 173 173 173 173 173 169 163 156 144 139 137 131 127 124 121 117 113
203 197 215 268 169 252 262 248 258 272 136 61 62 54 42 103 95 147 163 201 202 208 172 175 180 179 176 176 174 175 176 177 177 177 178 178 179 174 165 154 146 145 142 138 133 131 130 123 118
194 175 244 178 214 237 259 257 279 278 98 94 48 32 54 99 118 146 165 211 203 179 174 178 179 180 178 177 175 175 177 179 180 180 182 183 185 183 168 158 156 151 146 143 141 141 133 124 118
184 212 252 230 262 264 247 266 258 246 140 147 139 11 50 32 163 176 174 206 209 181 177 178 181 182 180 179 178 178 180 182 182 184 186 186 190 185 170 164 159 153 154 153 150 145 137 129 123
194 270 237 242 250 261 263 263 275 245 183 176 163 209 208 153 178 170 186 198 201 188 172 181 183 183 182 180 179 178 181 184 185 186 189 191 193 181 172 169 165 163 162 160 155 149 142 134 129
227 223 291 258 266 269 271 274 279 235 204 170 154 172 114 181 190 167 204 201 191 200 168 182 184 186 185 183 181 180 182 185 188 189 193 196 192 181 178 175 173 170 169 164 159 153 144 137 134
217 313 259 265 270 288 287 298 305 320 80 57 302 191 146 164 171 159 191 200 201 191 180 182 183 187 188 187 185 184 185 187 189 192 196 198 186 185 184 181 180 176 173 168 159 153 146 141 137
249 209 266 266 276 278 286 295 297 258 167 213 240 155 153 157 171 171 184 204 196 186 190 188 185 187 190 190 190 189 191 191 193 197 201 193 186 188 188 186 184 182 177 170 163 158 151 143 138
236 248 255 253 261 272 283 296 302 305 165 203 174 264 188 176 180 177 181 187 195 202 201 198 190 190 191 192 192 194 195 198 201 199 197 194 191 192 192 189 189 185 180 174 167 163 156 145 136
223 236 247 253 259 272 281 287 297 315 279 223 235 246 200 191 188 191 192 194 192 203 207 201 196 194 194 193 192 191 196 194 194 196 199 196 196 198 193 193 191 187 182 177 172 167 156 145 141
257 246 249 245 254 262 271 283 286 291 284 260 220 223 204 197 196 202 203 206 203 203 207 203 201 199 198 197 197 193 195 197 198 200 202 196 198 199 196 196 191 188 184 181 174 164 155 149 147
267 265 266 261 251 252 258 271 273 274 268 280 287 291 205 199 200 206 208 206 198 202 208 205 205 203 204 204 203 202 200 202 205 203 205 199 202 203 201 199 195 192 187 182 175 171 172 167 153
271 278 288 286 287 284 280 274 278 287 290 273 278 280 270 221 214 221 221 215 209 204 205 207 208 209 208 208 207 207 206 208 213 208 208 204 206 207 202 200 197 194 189 185 184 182 180 176 172
278 296 292 294 281 284 284 282 282 275 281 281 263 269 263 251 222 218 215 217 214 213 209 207 209 211 211 208 209 209 211 214 215 211 209 207 208 210 205 202 196 196 188 190 192 190 189 186 185
298 308 302 283 285 284 285 280 265 268 272 269 260 257 254 256 242 221 221 218 223 222 217 211 211 214 213 211 210 210 214 215 216 216 210 207 208 212 209 207 200 197 189 194 194 194 192 188 184
284 288 272 271 255 263 259 260 263 260 255 256 256 258 255 247 245 239 228 221 223 221 215 219 217 214 216 214 213 212 213 216 217 221 211 205 209 212 210 209 201 196 193 195 196 197 191 188 186
223 256 257 269 255 265 250 266 271 261 240 242 246 247 245 244 244 241 237 226 219 221 220 216 218 219 217 216 218 215 215 218 217 219 210 204 208 210 212 208 202 197 194 199 200 195 197 188 184
236 244 250 253 271 250 259 257 257 260 248 237 238 237 238 235 237 242 237 233 223 219 220 223 221 218 217 213 218 217 218 218 218 222 215 210 208 210 211 207 204 200 198 198 200 197 196 195 182
250 257 259 257 242 264 263 268 273 278 249 236 228 227 230 231 245 237 236 230 226 213 214 219 215 215 210 209 213 217 218 214 211 218 220 214 213 213 209 207 205 204 204 201 199 197 195 185 186
233 247 252 266 263 265 273 279 275 264 269 259 237 227 229 237 241 240 233 227 226 217 212 214 217 214 211 213 214 217 219 216 210 212 218 218 219 218 211 209 206 207 205 203 198 199 189 190 191
229 237 250 250 249 257 268 270 271 263 261 271 266 247 228 231 232 231 232 223 215 218 210 212 216 214 213 214 209 205 211 210 207 209 215 220 220 218 215 213 210 209 209 206 201 200 200 192 195
247 232 248 256 255 258 13 278 279 278 273 267 260 255 262 255 243 238 228 225 216 223 224 216 214 215 213 212 208 210 207 204 209 213 215 221 221 218 218 215 214 213 211 210 203 202 207 206 199
254 255 253 262 261 296 270 250 273 305 274 258 258 257 261 264 261 245 236 226 222 221 224 216 212 213 214 214 215 214 207 210 213 208 211 218 221 219 219 216 215 216 214 213 208 206 210 213 212
265 272 273 272 268 250 247 219 262 263 256 262 255 261 265 291 288 284 260 235 229 220 223 215 208 209 211 211 213 214 211 210 209 209 208 214 219 220 218 217 217 217 217 217 213 213 214 216 215
258 261 264 246 240 244 252 255 232 260 259 266 279 276 281 282 279 267 253 245 219 208 214 211 207 207 208 209 212 212 214 214 213 213 211 213 216 218 217 217 217 219 217 219 218 215 216 217 218
239 236 245 262 239 251 253 239 242 246 288 38 24 2 348 320 263 260 221 194 196 201 208 208 205 202 206 207 209 214 216 216 215 214 211 216 220 223 222 218 219 221 220 220 219 220 219 219 218
266 239 243 253 254 266 248 261 267 33 3 5 359 2 348 339 284 221 200 170 155 194 202 207 204 205 208 209 212 215 216 217 214 210 214 217 219 222 223 220 221 222 223 223 222 223 222 220 219
26 322 260 231 252 251 225 245 252 23 343 350 1 358 353 346 307 201 195 187 185 187 206 209 207 207 208 208 213 216 216 217 213 207 209 215 218 221 223 223 223 225 225 224 223 224 220 220 220
334 330 334 319 17 325 259 177 68 42 359 331 339 355 5 2 351 341 109 153 174 193 205 210 203 203 204 208 209 208 211 214 214 214 214 217 220 223 225 227 226 226 225 224 220 218 219 220 221
245 177 270 95 10 293 276 266 186 220 264 309 338 345 2 3 352 359 32 78 122 160 179 190 188 193 201 202 202 206 209 215 213 214 214 216 218 220 224 222 227 229 226 223 223 219 216 218 215
Wind_Speed_850mb
15 16 15 6 4 5 17 25 28 35 18 4 15 16 9 4 7 3 39 26 26 24 28 47 57 62 62 62 60 62 64 59 54 48 43 38 33 28 26 25 23 22 20 18 19 18 16 15 15
14 16 11 8 5 6 20 31 33 30 20 12 15 19 16 9 20 25 40 26 25 24 33 48 58 62 63 62 61 64 64 58 54 48 42 36 31 26 24 25 26 23 21 21 19 17 15 16 18
20 21 5 6 9 25 16 18 25 10 22 13 5 9 5 13 20 31 20 24 23 23 35 49 58 63 63 62 62 65 64 59 53 47 42 36 31 27 24 27 25 22 22 21 19 16 15 17 22
18 12 15 4 26 35 35 46 45 19 18 16 6 4 5 2 28 19 26 26 24 25 38 49 58 61 62 61 62 63 62 58 53 48 44 39 35 27 28 27 24 24 24 21 19 17 18 23 27
20 10 7 10 20 35 38 60 50 13 12 20 23 6 4 14 21 26 22 28 28 29 39 49 56 60 62 62 60 61 61 59 55 51 47 42 37 31 30 26 26 26 25 22 20 20 23 26 30
8 9 5 11 24 40 39 62 50 17 13 7 16 12 7 27 28 26 20 28 27 27 39 48 54 58 60 61 60 60 60 59 56 54 50 44 36 34 32 29 28 28 26 23 22 23 26 27 30
11 4 19 19 32 46 46 66 28 7 3 3 6 6 26 37 29 30 27 30 30 28 40 49 57 58 59 60 62 62 62 61 59 57 53 44 39 37 34 33 32 30 27 24 23 26 27 27 31
45 5 32 25 27 46 51 57 58 15 5 11 10 6 11 49 34 33 35 36 28 36 44 51 60 60 62 64 62 63 64 64 61 56 51 45 43 40 39 36 34 31 28 26 27 29 29 29 35
35 12 32 37 35 44 65 38 67 16 10 9 6 5 17 51 48 40 44 43 37 42 46 51 64 66 64 63 67 68 66 63 64 58 51 48 46 45 42 39 37 33 30 28 30 31 31 33 42
30 22 40 33 34 43 60 53 59 31 26 17 22 25 28 46 52 49 55 56 58 55 54 59 70 72 71 67 67 63 62 65 64 62 58 50 47 46 47 45 41 37 34 33 35 36 36 40 47
36 41 35 39 61 66 58 58 66 37 31 24 45 53 55 64 59 56 57 55 61 64 60 67 73 76 78 76 75 72 69 67 67 64 61 54 52 57 54 52 49 44 42 40 42 43 43 44 48
36 58 55 58 68 67 43 65 56 56 52 61 62 46 59 67 65 63 59 60 67 71 69 68 73 81 81 79 80 80 74 70 68 66 62 59 63 61 58 53 49 47 45 44 45 47 45 43 44
42 41 58 65 62 54 56 43 35 58 70 71 69 66 51 61 70 66 59 58 63 74 78 80 81 81 85 83 84 81 75 71 71 69 65 65 69 65 59 55 52 50 49 49 52 50 45 41 47
47 43 51 60 71 64 48 49 45 70 82 67 73 77 68 51 66 71 68 67 68 70 82 88 87 89 91 88 89 84 77 76 77 77 72 74 72 67 63 61 56 57 54 54 51 48 44 46 47
27 33 40 45 48 47 57 56 60 76 81 70 70 77 80 77 58 79 78 81 75 75 73 91 93 93 96 95 96 89 83 80 80 79 75 82 78 71 65 62 57 61 60 56 51 45 47 52 52
35 28 32 16 32 47 37 59 46 65 75 75 76 73 72 77 82 78 87 93 89 86 87 79 90 96 100 100 103 95 88 84 82 77 77 90 83 78 68 65 64 64 61 58 57 54 55 51 50
21 38 47 39 39 40 36 61 53 66 72 72 80 84 84 87 92 94 92 93 106 98 97 91 90 95 102 107 102 96 87 90 86 83 81 96 88 83 75 71 68 66 66 65 62 61 57 55 50
35 46 45 38 17 33 52 58 59 83 62 71 76 77 76 81 99 100 102 99 103 114 108 103 99 100 100 109 101 97 89 90 89 88 87 94 94 88 80 75 73 74 72 71 68 64 60 54 54
34 36 49 32 36 48 40 48 40 30 44 45 65 67 72 80 57 81 103 102 99 114 123 122 115 110 107 108 108 102 100 96 95 94 92 86 92 96 91 86 84 83 82 80 75 69 65 59 61
46 52 59 50 44 44 50 59 52 38 42 33 59 65 68 84 72 73 61 98 107 106 120 127 123 119 112 112 106 107 101 102 100 99 98 91 88 96 95 93 94 92 88 83 83 81 77 72 74
50 60 48 55 38 45 51 59 57 40 36 52 60 51 65 77 76 84 85 75 83 100 115 125 127 125 116 109 105 99 95 93 89 99 103 102 92 93 99 95 96 96 91 90 90 91 89 89 82
51 49 52 55 41 36 6 27 60 33 51 41 37 59 65 61 67 79 77 88 84 91 103 113 130 130 122 114 111 109 113 108 109 114 110 106 96 93 103 102 100 99 94 93 95 95 95 91 93
63 23 40 47 45 25 39 20 59 18 44 43 30 52 61 74 81 83 97 99 103 98 101 114 127 131 125 120 115 108 117 113 106 95 94 107 100 93 96 105 105 103 99 98 99 101 102 97 93
41 46 41 43 34 27 59 35 33 47 58 46 32 44 54 40 56 57 74 98 104 111 114 117 126 131 126 120 117 110 111 114 113 101 96 104 105 101 98 104 111 104 101 102 102 103 104 101 98
42 32 19 23 30 39 50 33 32 58 66 42 22 43 73 80 65 64 67 73 88 106 122 119 125 129 125 117 116 107 104 111 117 118 113 111 111 110 106 102 114 110 102 103 102 104 105 105 100
41 52 30 26 26 34 37 32 43 35 30 44 50 51 70 66 56 41 46 53 68 103 110 117 121 119 115 109 105 96 92 99 108 112 109 115 115 112 107 102 108 109 100 103 102 104 104 105 99
37 45 56 53 53 33 28 36 24 24 30 34 34 54 68 90 59 51 39 23 28 69 98 104 107 107 107 98 91 89 86 95 105 98 106 108 109 109 105 101 102 106 103 102 98 100 105 104 102
18 18 15 25 38 48 16 25 10 23 24 28 33 35 60 89 42 37 38 39 47 43 69 84 86 93 94 85 84 84 82 89 98 87 97 101 102 102 99 94 94 100 102 100 95 97 95 97 91
18 13 7 8 8 8 13 5 10 15 8 18 17 28 46 77 87 14 9 15 31 58 66 76 81 86 81 79 77 72 80 80 101 99 94 94 94 93 89 85 85 95 97 99 97 93 87 89 86
18 7 7 7 7 7 4 8 19 4 6 7 13 34 34 62 88 50 15 10 10 35 72 68 79 77 74 66 61 70 77 74 86 92 89 85 86 85 82 80 83 89 89 95 89 86 80 86 86
Wind_Direction_850mb
250 227 227 260 21 108 250 248 238 267 285 126 102 73 145 118 68 262 159 193 204 207 173 175 180 179 176 175 173 172 174 174 173 173 173 173 173 169 163 156 144 139 137 131 127 124 121 117 113
203 197 215 268 169 252 262 248 258 272 136 61 62 54 42 103 95 147 163 201 202 208 172 175 180 179 176 176 174 175 176 177 177 177 178 178 179 174 165 154 146 145 142 138 133 131 130 123 118
194 175 244 178 214 237 259 257 279 278 98 94 48 32 54 99 118 146 165 211 203 179 174 178 179 180 178 177 175 175 177 179 180 180 182 183 185 183 168 158 156 151 146 143 141 141 133 124 118
184 212 252 230 262 264 247 266 258 246 140 147 139 11 50 32 163 176 174 206 209 181 177 178 181 182 180 179 178 178 180 182 182 184 186 186 190 185 170 164 159 153 154 153 150 145 137 129 123
194 270 237 242 250 261 263 263 275 245 183 176 163 209 208 153 178 170 186 198 201 188 172 181 183 183 182 180 179 178 181 184 185 186 189 191 193 181 172 169 165 163 162 160 155 149 142 134 129
227 223 291 258 266 269 271 274 279 235 204 170 154 172 114 181 190 167 204 201 191 200 168 182 184 186 185 183 181 180 182 185 188 189 193 196 192 181 178 175 173 170 169 164 159 153 144 137 134
217 313 259 265 270 288 287 298 305 320 80 57 302 191 146 164 171 159 191 200 201 191 180 182 183 187 188 187 185 184 185 187 189 192 196 198 186 185 184 181 180 176 173 168 159 153 146 141 137
249 209 266 266 276 278 286 295 297 258 167 213 240 155 153 157 171 171 184 204 196 186 190 188 185 187 190 190 190 189 191 191 193 197 201 193 186 188 188 186 184 182 177 170 163 158 151 143 138
236 248 255 253 261 272 283 296 302 305 165 203 174 264 188 176 180 177 181 187 195 202 201 198 190 190 191 192 192 194 195 198 201 199 197 194 191 192 192 189 189 185 180 174 167 163 156 145 136
223 236 247 253 259 272 281 287 297 315 279 223 235 246 200 191 188 191 192 194 192 203 207 201 196 194 194 193 192 191 196 194 194 196 199 196 196 198 193 193 191 187 182 177 172 167 156 145 141
257 246 249 245 254 262 271 283 286 291 284 260 220 223 204 197 196 202 203 206 203 203 207 203 201 199 198 197 197 193 195 197 198 200 202 196 198 199 196 196 191 188 184 181 174 164 155 149 147
267 265 266 261 251 252 258 271 273 274 268 280 287 291 205 199 200 206 208 206 198 202 208 205 205 203 204 204 203 202 200 202 205 203 205 199 202 203 201 199 195 192 187 182 175 171 172 167 153
271 278 288 286 287 284 280 274 278 287 290 273 278 280 270 221 214 221 221 215 209 204 205 207 208 209 208 208 207 207 206 208 213 208 208 204 206 207 202 200 197 194 189 185 184 182 180 176 172
278 296 292 294 281 284 284 282 282 275 281 281 263 269 263 251 222 218 215 217 214 213 209 207 209 211 211 208 209 209 211 214 215 211 209 207 208 210 205 202 196 196 188 190 192 190 189 186 185
298 308 302 283 285 284 285 280 265 268 272 269 260 257 254 256 242 221 221 218 223 222 217 211 211 214 213 211 210 210 214 215 216 216 210 207 208 212 209 207 200 197 189 194 194 194 192 188 184
284 288 272 271 255 263 259 260 263 260 255 256 256 258 255 247 245 239 228 221 223 221 215 219 217 214 216 214 213 212 213 216 217 221 211 205 209 212 210 209 201 196 193 195 196 197 191 188 186
223 256 257 269 255 265 250 266 271 261 240 242 246 247 245 244 244 241 237 226 219 221 220 216 218 219 217 216 218 215 215 218 217 219 210 204 208 210 212 208 202 197 194 199 200 195 197 188 184
236 244 250 253 271 250 259 257 257 260 248 237 238 237 238 235 237 242 237 233 223 219 220 223 221 218 217 213 218 217 218 218 218 222 215 210 208 210 211 207 204 200 198 198 200 197 196 195 182
250 257 259 257 242 264 263 268 273 278 249 236 228 227 230 231 245 237 236 230 226 213 214 219 215 215 210 209 213 217 218 214 211 218 220 214 213 213 209 207 205 204 204 201 199 197 195 185 186
233 247 252 266 263 265 273 279 275 264 269 259 237 227 229 237 241 240 233 227 226 217 212 214 217 214 211 213 214 217 219 216 210 212 218 218 219 218 211 209 206 207 205 203 198 199 189 190 191
229 237 250 250 249 257 268 270 271 263 261 271 266 247 228 231 232 231 232 223 215 218 210 212 216 214 213 214 209 205 211 210 207 209 215 220 220 218 215 213 210 209 209 206 201 200 200 192 195
247 232 248 256 255 258 13 278 279 278 273 267 260 255 262 255 243 238 228 225 216 223 224 216 214 215 213 212 208 210 207 204 209 213 215 221 221 218 218 215 214 213 211 210 203 202 207 206 199
254 255 253 262 261 296 270 250 273 305 274 258 258 257 261 264 261 245 236 226 222 221 224 216 212 213 214 214 215 214 207 210 213 208 211 218 221 219 219 216 215 216 214 213 208 206 210 213 212
265 272 273 272 268 250 247 219 262 263 256 262 255 261 265 291 288 284 260 235 229 220 223 215 208 209 211 211 213 214 211 210 209 209 208 214 219 220 218 217 217 217 217 217 213 213 214 216 215
258 261 264 246 240 244 252 255 232 260 259 266 279 276 281 282 279 267 253 245 219 208 214 211 207 207 208 209 212 212 214 214 213 213 211 213 216 218 217 217 217 219 217 219 218 215 216 217 218
239 236 245 262 239 251 253 239 242 246 288 38 24 2 348 320 263 260 221 194 196 201 208 208 205 202 206 207 209 214 216 216 215 214 211 216 220 223 222 218 219 221 220 220 219 220 219 219 218
266 239 243 253 254 266 248 261 267 33 3 5 359 2 348 339 284 221 200 170 155 194 202 207 204 205 208 209 212 215 216 217 214 210 214 217 219 222 223 220 221 222 223 223 222 223 222 220 219
26 322 260 231 252 251 225 245 252 23 343 350 1 358 353 346 307 201 195 187 185 187 206 209 207 207 208 208 213 216 216 217 213 207 209 215 218 221 223 223 223 225 225 224 223 224 220 220 220
334 330 334 319 17 325 259 177 68 42 359 331 339 355 5 2 351 341 109 153 174 193 205 210 203 203 204 208 209 208 211 214 214 214 214 217 220 223 225 227 226 226 225 224 220 218 219 220 221
245 177 270 95 10 293 276 266 186 220 264 309 338 345 2 3 352 359 32 78 122 160 179 190 188 193 201 202 202 206 209 215 213 214 214 216 218 220 224 222 227 229 226 223 223 219 216 218 215